Clemson, SC

2:11 AM EST on November 22, 2017 (GMT -0500)
Oconee County Regional

Weather History for KCEU - March, 2013

Change the Weather History Date:

Tuesday, March 5, 2013

  Actual Average Record
Temperature  
Mean Temperature 47 °F -  
Max Temperature 55 °F 63 °F 81 °F (1976)
Min Temperature 39 °F 40 °F 11 °F (1960)
Degree Days  
Heating Degree Days 18    
Moisture  
Dew Point 40 °F    
Average Humidity 75    
Maximum Humidity 93    
Minimum Humidity 54    
Precipitation  
Precipitation 0.42 in - - ()
Sea Level Pressure  
Sea Level Pressure 29.81 in    
Wind  
Wind Speed 3 mph (NW)    
Max Wind Speed 24 mph    
Max Gust Speed 41 mph    
Visibility 6 miles    
Events Fog , Rain    
Averages and records for this station are not official NWS values.
T = Trace of Precipitation, MM = Missing Value Source: NWS Daily Summary

Daily Weather History Graph

Daily Weather History Graph

Search for Another Location

Airport or City:

Trip Planner

Search our weather history database for the weather conditions in past years. The results will help you decide how hot, cold, wet, or windy it might be!

Date:

Astronomy

Mar. 05, 2013 Rise Set
Actual Time 6:55 AM EST 6:31 PM EST
Civil Twilight 6:30 AM EST 6:56 PM EST
Nautical Twilight 6:00 AM EST 7:25 PM EST
Astronomical Twilight 5:31 AM EST 7:54 PM EST
Moon 1:55 AM EST (3/5) 12:19 PM EST (3/5)
Length of Visible Light 12h 26m
Length of Day
11h 35m
Last Quarter, 41% of the Moon is Illuminated
Mar 5
Last Quarter
Mar 11
New
Mar 19
First Quarter
Mar 27
Full
Apr 3
Last Quarter

Hourly Weather History & Observations

Time (EST) Temp. Windchill Dew Point Humidity Pressure Visibility Wind Dir Wind Speed Gust Speed Precip Events Conditions
12:54 AM 44.1 °F - 30.9 °F 60% 30.07 in 10.0 mi Calm Calm - N/A   Clear
2:54 AM 39.9 °F - 33.1 °F 77% 30.05 in 10.0 mi Calm Calm - N/A   Clear
3:54 AM 39.0 °F - 32.0 °F 76% 30.03 in 10.0 mi Calm Calm - N/A   Overcast
4:54 AM 42.1 °F - 32.0 °F 67% 30.03 in 10.0 mi Calm Calm - N/A   Overcast
5:05 AM 42.8 °F - 32.0 °F 66% 30.03 in 10.0 mi Calm Calm - N/A   Overcast
5:54 AM 41.0 °F - 34.0 °F 76% 30.03 in 10.0 mi Calm Calm - 0.00 in Rain Light Rain
6:54 AM 41.0 °F - 35.1 °F 79% 30.02 in 10.0 mi Calm Calm - 0.00 in   Overcast
8:54 AM 44.1 °F - 36.0 °F 73% 30.01 in 8.0 mi Calm Calm - 0.00 in   Overcast
9:54 AM 45.0 °F - 37.9 °F 76% 30.00 in 7.0 mi Calm Calm - N/A   Overcast
10:54 AM 46.0 °F - 37.9 °F 73% 29.98 in 9.0 mi Calm Calm - 0.00 in   Overcast
11:54 AM 48.9 °F - 37.9 °F 66% 29.94 in 8.0 mi Calm Calm - N/A   Overcast
12:51 PM 53.6 °F - 37.4 °F 54% 29.90 in 9.0 mi Variable 4.6 mph - N/A   Mostly Cloudy
12:54 PM 53.1 °F - 37.9 °F 57% 29.90 in 9.0 mi NNE 4.6 mph - N/A   Mostly Cloudy
1:54 PM 54.0 °F - 39.0 °F 57% 29.86 in 10.0 mi NNE 3.5 mph - N/A   Overcast
2:54 PM 53.1 °F - 39.0 °F 59% 29.81 in 10.0 mi ENE 3.5 mph - N/A   Overcast
3:54 PM 55.0 °F - 41.0 °F 59% 29.77 in 10.0 mi North 5.8 mph - N/A   Overcast
4:54 PM 54.0 °F - 43.0 °F 66% 29.68 in 7.0 mi Variable 3.5 mph - 0.01 in Rain Light Rain
5:10 PM 51.8 °F - 44.6 °F 76% 29.68 in 2.0 mi ESE 3.5 mph - 0.03 in Rain Rain
5:20 PM 51.8 °F - 44.6 °F 76% 29.68 in 3.0 mi Calm Calm - 0.05 in Rain Rain
5:29 PM 51.8 °F - 46.4 °F 82% 29.68 in 1.8 mi NNW 5.8 mph - 0.10 in Rain Rain
5:54 PM 50.0 °F - 46.0 °F 86% 29.67 in 2.5 mi Calm Calm - 0.20 in Rain Light Rain
6:04 PM 50.0 °F - 46.4 °F 87% 29.70 in 3.0 mi NW 12.7 mph - 0.01 in Rain Light Rain
6:08 PM 48.2 °F - 44.6 °F 87% 29.72 in 1.5 mi NW 20.7 mph 27.6 mph 0.12 in Rain Light Rain
6:16 PM 48.2 °F - 44.6 °F 87% 29.71 in 0.8 mi NNW 9.2 mph 27.6 mph 0.18 in Rain Heavy Rain
6:24 PM 48.2 °F - 46.4 °F 93% 29.70 in 1.5 mi Calm Calm - 0.21 in Rain Heavy Rain
6:32 PM 48.2 °F - 44.6 °F 87% 29.71 in 3.0 mi Calm Calm - 0.21 in Rain Light Rain
6:54 PM 48.9 °F - 45.0 °F 86% 29.71 in 4.0 mi Calm Calm - 0.21 in   Scattered Clouds
7:13 PM 46.4 °F 45.2 °F 44.6 °F 93% 29.71 in 2.5 mi SSW 3.5 mph - N/A   Clear
7:35 PM 48.2 °F - 44.6 °F 87% 29.70 in 4.0 mi SSW 3.5 mph - N/A   Clear
7:54 PM 46.0 °F 44.8 °F 43.0 °F 89% 29.70 in 1.2 mi NNW 3.5 mph - N/A   Partly Cloudy
7:57 PM 44.6 °F - 42.8 °F 93% 29.70 in 0.2 mi Calm Calm - N/A Fog Fog
8:10 PM 48.2 °F - 44.6 °F 87% 29.69 in 1.0 mi WSW 8.1 mph - N/A   Mist
8:12 PM 48.2 °F - 44.6 °F 87% 29.69 in 2.5 mi WSW 9.2 mph - N/A   Partly Cloudy
8:19 PM 48.2 °F - 44.6 °F 87% 29.69 in 9.0 mi West 12.7 mph - N/A   Partly Cloudy
8:54 PM 52.0 °F - 45.0 °F 77% 29.71 in 10.0 mi WNW 12.7 mph - N/A   Partly Cloudy
9:54 PM 48.9 °F - 35.1 °F 59% 29.73 in 10.0 mi West 17.3 mph 26.5 mph N/A   Clear
10:54 PM 43.0 °F 33.5 °F 28.0 °F 56% 29.75 in 10.0 mi West 24.2 mph 41.4 mph N/A   Clear
11:54 PM 41.0 °F 31.6 °F 26.1 °F 55% 29.77 in 10.0 mi West 20.7 mph 34.5 mph N/A   Clear